Weather Roundup
Issued by NWS

Home | Current Version | Previous Version | Text Only | Print | Product List | Glossary On
Versions: 1 2 3 4 5 6 7 8 9 10 11 12 13 14 15 16 17 18 19 20 21 22 23 24 25 26 27 28 29 30 31 32 33 34 35 36 37 38 39 40 41 42 43 44 45 46 47 48 49 50
000
NZUS93 KARX 011610
HRRWXR

CURRENT HOURLY OBSERVATIONS ACROSS
MUCH OF THE UPPER MISSISSIPPI VALLEY
NATIONAL WEATHER SERVICE LA CROSSE WI
1100 AM CDT MON SEP 01 2014


...SOUTHEAST MINNESOTA...


CITY           SKY/WX    TMP DP  RH WIND       PRES   REMARKS
ROCHESTER      PTSUNNY   71  63  75 W7        29.73R
ROCHESTER/MAYO CLOUDY    70  61  73 W9        29.72R
WINONA         PTSUNNY   72  64  78 W8        29.69R
AUSTIN         PTSUNNY   70  63  78 W7        29.74R
ALBERT LEA     RAIN      70  64  83 W6        29.75R
DODGE CENTER   MOSUNNY   72  63  73 W10       29.73R
PRESTON        CLOUDY    70  68  92 W8        29.74R
OWATONNA       MOSUNNY   70  63  78 W13       29.74R
FARIBAULT      MOSUNNY   73  61  64 W7        29.73R
$$

...ELSEWHERE IN MINNESOTA...


CITY           SKY/WX    TMP DP  RH WIND       PRES   REMARKS
MINNEAPOLIS    CLOUDY    70  63  78 NW8       29.70R
INTNL FALLS    LGT RAIN  61  59  93 NW10      29.63R FOG
DULUTH         PTSUNNY   64  57  78 NW15G21   29.64S
RED WING       LGT RAIN  70  64  83 NW6       29.68R
REDWOOD FALLS  SUNNY     70  59  68 NW8       29.76R
MANKATO        PTSUNNY   70  61  73 W7        29.75R
WORTHINGTON    MOSUNNY   70  63  78 NW12      29.82R
FAIRMONT       CLOUDY    70  59  68 NW9       29.78R
$$

...SOUTHWEST WISCONSIN...


CITY           SKY/WX    TMP DP  RH WIND       PRES   REMARKS
LA CROSSE      PTSUNNY   73  67  81 SW8       29.68R
PRAIRIE DU CHI CLOUDY    70  65  84 SW7       29.73R
BOSCOBEL       CLOUDY    70  66  87 SW10      29.72S
LONE ROCK      CLOUDY    72  65  78 SW9       29.73R
PLATTEVILLE    CLOUDY    72  66  82 SW13G23   29.76S
FORT MC COY    CLOUDY    66  64  94 W5        29.70R
CAMP DOUGLAS   CLOUDY    68  68 100 SW8       29.69F
VIROQUA        CLOUDY    65  65 100 SW8       29.72R
WIS DELLS      LGT RAIN  66  63  87 S7        29.70F
$$

...ELSEWHERE IN WISCONSIN...


CITY           SKY/WX    TMP DP  RH WIND       PRES   REMARKS
MILWAUKEE      LGT RAIN  73  69  87 SW14      29.75R
MADISON        PTSUNNY   73  63  70 SW8       29.73R
GREEN BAY      CLOUDY    67  64  90 SW7       29.71F
EAU CLAIRE     CLOUDY    69  66  90 SW8       29.66R
BLACK RVR FLS  CLOUDY    68  67  98 SW6       29.67R
MEDFORD        CLOUDY    64  62  94 S9        29.66S
WAUSAU         CLOUDY    66  64  93 SW9       29.66F
WIS RAPIDS     CLOUDY    67  64  90 SW7       29.70S
MARSHFIELD     CLOUDY    66  66 100 SW9       29.67S
RICE LAKE      CLOUDY    67  62  84 W7        29.69R
$$

...NORTHEAST IOWA...


CITY           SKY/WX    TMP DP  RH WIND       PRES   REMARKS
WATERLOO       CLOUDY    73  66  78 W14       29.75R
DUBUQUE        CLOUDY    71  65  81 W20       29.77R
DECORAH        CLOUDY    70  66  88 VRB7G14   29.72R
MASON CITY     CLOUDY    72  66  81 W10       29.78R
CHARLES CITY   CLOUDY    70  66  88 W9G16     29.75R
OELWEIN        CLOUDY    72  68  88 W15       29.76R
$$

...ELSEWHERE IN IOWA...


CITY           SKY/WX    TMP DP  RH WIND       PRES   REMARKS
DES MOINES     PTSUNNY   75  65  70 W16       29.79R
IOWA CITY      SUNNY     76  67  73 W15       29.79R
FORT DODGE     CLOUDY    72  64  78 W6        29.79R
MARSHALLTOWN   PTSUNNY   73  67  81 W14       29.77R
CEDAR RAPIDS   PTSUNNY   73  67  81 W14G21    29.77R
$$

...NORTHERN ILLINOIS...


CITY           SKY/WX    TMP DP  RH WIND       PRES   REMARKS
CHICAGO-OHARE  LGT RAIN  75  69  81 SW8       29.78S
DUPAGE         CLOUDY    75  71  87 W13       29.79R
CHICAGO-MIDWAY CLOUDY    78  71  79 SW15      29.79R
MOLINE         MOSUNNY   76  65  68 W14       29.78R
ROCKFORD       PTSUNNY   74  66  76 SW10G21   29.79R
STERLING       PTSUNNY   77  66  69 W14G20    29.79S
PEORIA         MOSUNNY   80  64  58 W10       29.81R
$$

NOTE: "FAIR" INDICATES FEW OR NO CLOUDS BELOW 12,000 FEET WITH NO
SIGNIFICANT WEATHER AND/OR OBSTRUCTIONS TO VISIBILITY. WIND
SPEEDS ARE IN MILES-PER-HOUR.



USA.gov is the U.S. government's official web portal to all federal, state and local government web resources and services.